User: anonymous   Login
Location: Bangkok
(13.7500°N, 100.5170°E)
Time: 11:20:59
(UTC+07:00)
Language:

Cosmos 1898 Rocket - Orbit

View from above orbital plane
View from above orbital plane
View from above satellite
View from above satellite

Ground track
Ground track

The orbit data is extracted from the following two-line orbital elements,

1 18586U 87098B   14351.49023152  .00000418  00000-0  15088-3 0  1978
2 18586 074.0052 175.7199 0020017 087.4241 300.3278 14.36523890416299
Epoch (UTC): 17 December 2014 11:45:56
Eccentricity: 0.0020017
inclination: 74.0052°
perigee height: 756 km
apogee height: 784 km
right ascension of ascending node: 175.7199°
argument of perigee: 87.4241°
revolutions per day: 14.36523890
mean anomaly at epoch: 300.3278°
orbit number at epoch: 41629

The dashed part of the orbit path shows where the satellite is in the earth's shadow,  

DLR